Regional Weather Roundup
Issued by NWS

Home | Current Version | Previous Version | Graphics & Text | Print | Product List | Glossary On
Versions: 1 2 3 4 5 6 7 8 9 10 11 12 13 14 15 16 17 18 19 20 21 22 23 24 25 26 27 28 29 30 31 32 33 34 35 36 37 38 39 40 41 42 43 44 45 46 47 48 49 50
000
ASUS43 KBIS 301602
RWRND

NORTH DAKOTA REGIONAL WEATHER ROUNDUP
NATIONAL WEATHER SERVICE BISMARCK ND
1100 AM CDT SAT JUL 30 2016

NOTE: "FAIR" INDICATES FEW OR NO CLOUDS BELOW 12,000 FEET WITH NO
SIGNIFICANT WEATHER AND/OR OBSTRUCTIONS TO VISIBILITY.


NDZ001>003-009>011-017-301700-
NORTHWEST NORTH DAKOTA

CITY           SKY/WX    TMP DP  RH WIND       PRES   REMARKS
WILLISTON      SUNNY     77  61  57 S6        29.88F
MINOT          SUNNY     79  60  52 VRB5      29.88F
MINOT AFB      SUNNY     76  61  59 VRB3      29.88S
$$

NDZ018>021-031>035-040>046-301700-
SOUTHWEST NORTH DAKOTA

CITY           SKY/WX    TMP DP  RH WIND       PRES   REMARKS
BISMARCK       PTSUNNY   75  66  73 SE13      29.90F
DICKINSON      SUNNY     75  55  49 CALM      29.90S
GARRISON         N/A     74  66  76 VRB5      29.89F
HETTINGER ARPT SUNNY     78  59  51 VRB3      29.92F
$$

NDZ004>008-012>016-024-026-027-054-301700-
NORTHEAST NORTH DAKOTA

CITY           SKY/WX    TMP DP  RH WIND       PRES   REMARKS
GRAND FORKS    PTSUNNY   76  61  59 S14       29.94F
GRND FRKS AFB  SUNNY     75  62  64 S14       29.94S
DEVILS LAKE    MOSUNNY   74  62  66 SW10      29.93S
$$

NDZ022-023-025-028>030-036>039-047>053-301700-
SOUTHEAST NORTH DAKOTA

CITY           SKY/WX    TMP DP  RH WIND       PRES   REMARKS
FARGO          PTSUNNY   76  62  62 S9        29.98S
JAMESTOWN      CLOUDY    72  61  68 S10       29.95F
$$





USA.gov is the U.S. government's official web portal to all federal, state and local government web resources and services.